Simultaneous Nadir Overpasses (SNOs) Predictions

Prediction of SNOs between METOP-C and LANDSAT-8 Satellite Orbit:

Table of predicted SNOs for the next 14.0 days since TLE Epoch: 2/10/2024
Index Date (METOP-C) Time (METOP-C) Lat,Lon (METOP-C) SZA (METOP-C ) Date (LANDSAT-8) Time (LANDSAT-8) Lat,Lon (LANDSAT-8) SZA (LANDSAT-8 ) Distance(km) Time Diff (sec)
1 02/11/2024 10:11:29 -81.13,-113.35 83.16 02/11/2024 10:12:13 -81.12,-113.47 83.16 2.18 44
2 02/11/2024 11:02:08 81.15, 54.58 96.91 02/11/2024 11:01:38 81.15, 54.63 96.90 0.82 30
3 02/14/2024 05:45:52 -81.13, -46.81 84.07 02/14/2024 05:46:26 -81.12, -46.97 84.08 2.97 34
4 02/14/2024 06:36:31 81.15, 121.05 95.98 02/14/2024 06:35:51 81.15, 121.10 95.97 0.84 40
5 02/17/2024 01:20:16 -81.13, 19.61 85.03 02/17/2024 01:20:39 -81.13, 19.61 85.02 0.12 23
6 02/17/2024 02:10:54 81.16,-172.22 95.06 02/17/2024 02:10:04 81.16,-172.34 95.03 2.14 50
7 02/19/2024 20:54:39 -81.14, 86.30 85.98 02/19/2024 20:54:51 -81.15, 86.29 85.97 0.57 12
8 02/19/2024 21:45:18 81.15,-105.97 94.06 02/19/2024 21:44:17 81.15,-106.05 94.02 1.56 61
9 02/22/2024 15:38:48 80.67, -24.47 91.83 02/22/2024 15:40:01 80.46, -23.47 91.73 29.79 73
10 02/22/2024 16:29:02 -81.15, 152.88 86.96 02/22/2024 16:29:03 -81.14, 152.69 86.98 3.24 1



Historial Predications of SNOs between METOP-C and LANDSAT-8
